Location: Waco, TX
(31.5480°N, 97.1670°W)
Time: 19:04:49
(UTC-06:00)

ISS - Pass Details

Date: 17 November 2017
Orbit: 402 x 407 km, 51.6° (Epoch: 21 November)

Event Time Altitude Azimuth Distance (km) Brightness Sun altitude
Rises 22:04:00 0° 230° (SW) 2,308 - -58.4°
Reaches altitude 10° 22:06:05 10° 234° (SW) 1,451 - -58.8°
Maximum altitude 22:09:18 63° 316° (NW) 452 - -59.5°
Drops below altitude 10° 22:12:33 10° 39° (NE) 1,455 - -60.1°
Sets 22:14:38 0° 42° (NE) 2,316 - -60.5°
